Weather in Nazareth

Israel     32°42′14″N   35°17′24″E
temp.,
°C
wind,
m/s
gust,
m/s
humid.,
%
clouds,
%
prec.,
mm/h
press.,
hPa
HPBL,
m
11 april, sun
sun1100:00+11w5967100 0.1 1016539
03:00+10w59575 0.3 1015302
06:00+9sw236465 0.1 101657
09:00+13w575191 0.1 10171566
12:00+15w6744100 0.2 10182187
15:00+15w7748100 0.2 10181927
18:00+14w466412 0.2 1019923
21:00+9wsw227544 0.2 102012
12 april, mon
mon1200:00+9ssw117736 0.0 102012
03:00+9ssw117852 0.0 101920
06:00+11sse1168100 0.0 101915
09:00+12se226299 0.0 1020205
12:00+16wsw334887 0.0 10191799
15:00+17wnw65490 0.0 10181395
18:00+14nw67570 0.0 1018988
21:00+10nw33760 0.0 101936
13 april, tue
tue1300:00+9nw11770 0.0 101910
03:00+9nnw11810 0.0 101910
06:00+8ese11830 0.0 101910
09:00+14ne12590 0.0 1020576
12:00+18nw44400 0.0 10191470
15:00+18nw76400 0.0 10191210
18:00+15nw68500 0.0 1018613
21:00+10nw22710 0.0 101929
14 april, wed
wed1400:00+9nnw01710 0.0 101910
03:00+9ene11662 0.0 101910
06:00+9ene11600 0.0 101910
09:00+16e234119 0.0 1020450
12:00+22e22281 0.0 10181099
15:00+22nw633734 0.0 1016776
18:00+19nw45525 0.0 1016256
21:00+13nw226245 0.0 101711
15 april, thu
thu1500:00+13wnw11565 0.0 101611
03:00+13n115622 0.0 101611
06:00+13ene1157100 0.0 101610
09:00+20ene2238100 0.0 1016255
12:00+26e3322100 0.0 1015810
15:00+24nw543999 0.0 1014394
18:00+22wnw35470 0.0 1014193
21:00+16nw22530 0.0 101412